GSAT-6 (40880 NORAD) Tracking and Keplerian Element Data

This shows tracking and keplerian element data for the satellite.

Feedback or suggestion? Click here.




ElementValue
Catalog40880
NameGSAT-6
Epoch Orbit3345
Epoch Day286.89285543
Epoch Year2024
RAAN91.685
Inclination0.328
Eccentricity0.0003282
Argument of Perigee117.2024
Mean Anonmoly217.0125
Mean Motion1.00270912
Decay Rate-1.61E-06
L11 40880U 15041A 24286.89285543 -.00000161 00000+0 00000+0 0 9994
L22 40880 0.3280 91.6850 0003282 117.2024 217.0125 1.00270912 33451



Live tracking and technical data element details for GSAT-6 (NORAD 40880). GSAT-6 can be tracked NOW for your location showing map with azimuth and elevation plus other details from your city location.







IsCatalogInMostPopularTable: catalog: 40880, numindb: 649
Update: records affected: 1



GetName: 40880 GSAT-6

Hit Count: updated at: Wed, 04 Dec 2024 21:04:54 GMT